Weather in Oy

Russia / Sakha (Yakutia) Republic     61°32′12″N   129°10′57″E
temp.,
°C
wind,
m/s
gust,
m/s
humid.,
%
clouds,
%
prec.,
mm/h
press.,
hPa
HPBL,
m
8 march, mon
mon800:00−22ne229993 0.1 101046
03:00−21ne229997 0.3 100868
06:00−19ne2399100 0.1 1005109
09:00−17ne2497100 0.4 1004150
12:00−14nne3495100 0.3 1002233
15:00−13nne3594100 0.6 1001242
18:00−16n3596100 0.2 1001151
21:00−19n2398100 0.4 100388
9 march, tue
tue900:00−21n2298100 0.1 100420
03:00−21nw1198100 0.1 100720
06:00−22wnw1199100 0.1 100920
09:00−18w139698 0.3 1011191
12:00−13w258894 0.1 1012491
15:00−10w368697 0.2 1012711
18:00−14w129191 0.0 101220
21:00−15ssw229672 0.1 101325
10 march, wed
wed1000:00−17s229431 0.0 101124
03:00−16se249165 0.0 100972
06:00−13sse3886100 0.0 1005286
09:00−12s41094100 0.4 1003588
12:00−8ssw4792100 0.7 1003634
15:00−8w71178100 1.1 10041162
18:00−11w41184100 0.1 1007614
21:00−14wsw41089100 0.1 1010297
11 march, thu
thu1100:00−15wsw4119083 0.0 1012290
03:00−15wsw4109187 0.0 1014338
06:00−17wsw4119048 0.0 1014402
09:00−15wsw498974 0.0 1015777
12:00−12w4878100 0.1 10151405
15:00−11wnw4873100 0.1 10151402
18:00−15wnw238690 0.1 101723
21:00−19wsw129245 0.1 101820
12 march, fri
fri1200:00−21sw12950 0.0 101820
03:00−22sse11997 0.0 101620
06:00−19ese229594 0.0 101351
09:00−14se389098 0.0 1008372
12:00−9sse5988100 0.0 1004659
15:00−6s4892100 0.8 1001636
18:00−4sse3795100 0.3 998277
21:000wsw61391100 0.8 996920